Probability
3 3 2 1 0 0 0 0 0 0 0 0 0 0 0 0 0 0 0 0 0 0 0 0 0 0 0 0 0 1 1 1 0 0 1 0 0 0 0 0 0 0 0
3 3 2 1 0 0 0 0 0 0 0 0 0 0 0 0 0 0 0 0 0 0 0 0 0 0 0 0 0 0 0 0 0 0 1 0 0 0 0 0 0 0 0
2 2 2 1 0 0 0 0 0 0 0 0 0 0 0 0 0 0 0 0 0 0 0 0 0 0 0 0 0 0 0 0 0 0 0 0 0 0 0 0 0 0 0
1 1 1 0 0 0 0 0 0 0 0 0 0 0 0 0 0 0 0 0 0 0 0 0 0 0 0 0 0 0 0 0 0 0 0 0 0 0 0 0 0 0 0
0 0 0 0 0 0 0 0 0 0 0 0 0 0 0 0 0 0 0 0 0 0 0 0 0 0 0 0 0 0 0 0 0 0 0 0 0 0 0 0 0 0 1
0 0 0 0 0 0 0 0 0 0 0 0 0 0 0 0 0 0 0 0 0 0 0 0 0 0 0 0 0 0 0 0 0 0 0 0 0 0 0 0 0 0 1
0 0 0 0 0 0 0 0 0 0 0 0 0 0 0 0 0 0 0 0 0 0 0 0 0 0 0 0 0 0 0 0 0 0 0 0 0 0 0 0 0 0 1
0 0 0 0 0 0 0 0 0 0 0 0 0 0 0 0 0 0 0 0 0 0 0 0 0 0 0 0 0 0 0 0 0 0 0 0 0 0 0 0 0 0 0
0 0 0 0 0 0 0 0 0 0 0 0 0 0 0 0 0 0 0 0 0 0 0 0 0 0 0 0 0 1 0 0 0 0 0 0 0 0 0 0 0 0 0
0 0 0 0 0 0 0 0 0 0 0 0 0 0 0 0 0 0 0 0 0 0 0 0 0 0 0 0 0 0 0 0 0 0 0 0 0 0 0 0 0 0 0
0 0 0 0 0 0 0 0 0 0 0 0 0 0 0 0 0 0 0 0 0 0 0 0 0 0 0 0 0 0 0 0 0 0 0 0 0 0 0 0 0 0 0
0 0 0 0 0 0 0 0 0 0 0 0 0 0 0 0 0 0 0 0 0 0 0 0 0 0 0 0 0 0 0 0 0 0 0 0 0 0 0 0 0 0 0
0 0 0 0 0 0 0 0 0 0 0 0 0 0 0 0 0 0 0 0 0 0 0 0 0 0 0 0 0 0 0 0 0 0 0 0 0 0 0 0 0 0 0
0 0 0 0 0 0 0 0 0 0 0 0 0 0 0 0 0 0 0 0 0 0 0 0 0 0 0 0 0 0 0 0 0 0 0 0 0 0 0 0 0 0 0
0 0 0 0 0 0 0 0 0 0 0 0 0 0 0 0 0 0 0 0 0 0 0 0 0 0 0 0 0 0 0 0 0 0 0 0 0 0 0 0 0 0 0
0 0 0 0 0 0 0 0 0 0 0 0 0 0 0 0 0 0 0 0 0 0 0 0 0 0 0 0 0 0 0 0 0 0 0 0 0 0 0 0 0 0 0
0 0 0 0 0 0 0 0 0 0 0 0 0 0 0 0 0 0 0 0 0 0 0 0 0 0 0 0 0 0 0 0 0 0 0 0 0 0 0 0 0 0 0
0 0 0 0 0 0 0 0 0 0 0 0 0 0 0 0 0 0 0 0 0 0 0 0 0 0 0 0 0 0 0 0 0 0 0 0 0 0 0 0 0 0 1
0 0 0 0 0 0 0 0 0 0 0 0 0 0 0 0 0 0 0 0 0 0 0 0 0 0 0 0 0 0 0 0 0 0 0 0 0 0 0 0 0 0 1
0 0 0 0 0 0 0 0 0 0 0 0 0 0 0 0 0 0 0 0 0 0 0 0 0 0 0 0 0 0 0 0 0 0 0 0 0 0 0 0 0 0 1
0 0 0 0 0 0 0 0 0 0 0 0 0 0 0 0 0 0 0 0 0 0 0 0 0 0 0 0 0 0 0 0 0 0 0 0 0 0 0 0 0 0 0
0 0 0 0 0 0 0 0 0 0 0 0 0 0 0 0 0 0 0 0 0 0 0 0 0 0 0 0 0 0 0 0 0 0 0 0 0 0 0 0 0 0 0
0 0 0 0 0 0 0 0 0 0 0 0 0 0 0 0 0 0 0 0 0 0 0 0 0 0 0 0 0 0 0 0 0 0 0 0 0 0 0 0 0 0 0
0 0 0 0 0 0 0 0 0 0 0 0 0 0 0 0 0 0 0 0 0 0 0 0 0 0 0 0 0 0 0 0 0 0 0 0 0 0 0 0 0 0 0
0 0 0 0 0 0 0 0 0 0 0 0 0 0 0 0 0 0 0 0 0 0 0 0 0 0 0 0 0 0 0 0 0 0 0 0 0 0 0 0 0 0 0
0 0 0 0 0 0 0 0 0 0 0 0 0 0 0 0 0 0 0 0 0 0 0 0 0 0 0 0 0 0 0 0 0 0 0 0 0 0 0 0 0 0 0
Wind_Speed
1 1 6 8 9 9 9 9 9 9 9 9 9 9 9 8 8 8 7 7 7 6 6 6 6 6 6 6 6 6 6 6 6 6 6 5 6 6 4 4 3 2 3
3 3 8 9 9 9 9 9 9 9 9 9 9 9 9 8 8 8 7 7 7 7 6 6 6 6 6 6 6 6 6 6 6 6 6 6 6 6 4 3 3 2 4
4 4 6 9 9 9 9 9 9 9 9 9 9 8 8 8 8 7 7 7 7 7 7 6 6 6 5 6 6 6 6 6 6 6 6 4 4 5 5 4 4 4 4
5 4 5 9 9 9 8 9 9 9 8 8 8 8 8 8 7 7 7 7 7 6 6 7 6 6 6 6 6 6 6 5 6 6 3 3 3 4 5 4 4 5 4
4 4 5 9 9 9 9 8 8 8 8 8 8 8 7 7 7 7 7 7 7 7 7 7 7 7 6 7 6 6 6 6 6 5 3 3 3 3 4 4 4 5 4
4 4 4 9 9 9 8 8 8 8 8 7 7 7 7 7 7 7 7 7 7 7 7 7 7 7 7 6 6 6 6 6 5 3 2 3 2 3 3 3 4 4 4
4 3 4 8 8 8 7 7 7 7 6 7 7 7 6 6 6 7 7 7 8 8 7 7 7 7 7 6 6 6 6 6 3 2 2 2 3 3 2 2 3 4 4
4 3 3 6 7 7 6 6 6 5 5 6 6 6 6 6 6 6 7 7 7 8 8 8 8 8 7 6 6 6 5 4 3 3 2 2 4 3 2 2 2 3 3
3 3 2 2 3 4 4 4 4 4 5 6 6 6 6 6 6 6 7 8 8 8 9 9 8 8 8 7 7 6 5 4 2 1 2 2 4 3 2 1 1 2 3
2 2 2 2 2 3 3 3 4 4 6 7 8 8 8 8 8 8 8 8 8 9 9 10 9 9 8 8 7 7 6 4 2 2 2 2 4 3 2 1 1 2 2
1 1 1 1 1 2 2 3 5 6 7 8 7 8 7 5 5 5 7 8 8 9 10 10 10 10 9 8 8 7 6 2 2 2 2 4 4 3 2 1 1 1 2
2 2 1 1 0 1 2 3 3 3 4 4 3 4 3 3 4 5 8 10 10 10 10 10 10 9 7 4 5 6 2 3 2 2 3 6 5 3 3 2 2 1 1
3 2 2 1 0 0 1 1 2 2 2 3 4 3 3 3 3 4 3 5 6 7 5 6 6 4 4 3 3 3 3 2 1 2 3 6 5 3 3 2 2 1 1
3 3 2 2 1 0 1 1 2 1 2 2 3 3 3 2 3 3 2 3 3 3 3 3 3 4 4 4 3 3 3 2 2 2 3 6 5 4 3 2 2 2 1
3 2 2 2 2 1 2 1 2 1 2 2 2 3 3 2 2 3 2 3 3 3 3 3 4 4 4 4 4 3 3 3 3 2 3 6 5 5 3 2 2 1 1
3 2 2 2 2 3 2 2 1 2 2 2 2 3 3 2 2 2 3 3 3 3 3 3 3 3 3 3 4 4 3 3 3 3 2 4 5 5 4 3 3 2 1
3 2 2 3 3 3 3 2 2 2 2 2 2 2 3 3 2 2 2 3 3 3 3 3 4 3 3 4 4 4 3 3 3 3 3 2 3 5 5 4 3 3 2
4 3 3 3 4 4 3 3 2 2 2 2 2 2 3 3 3 3 3 3 4 3 3 3 3 3 4 4 3 4 4 3 4 4 3 3 3 3 4 5 5 4 3
4 4 4 4 5 4 4 4 3 3 3 2 2 2 3 3 3 3 3 3 4 3 3 3 3 2 3 4 3 3 4 4 4 4 4 4 4 3 3 4 5 5 4
4 5 5 5 5 5 4 3 3 3 2 2 2 2 3 3 3 3 3 4 4 3 4 4 3 3 2 3 3 3 3 4 4 4 5 4 4 4 4 4 4 4 5
5 5 5 5 4 3 2 2 2 1 1 2 2 3 3 3 3 3 3 3 4 3 3 4 3 4 4 3 3 3 4 3 4 4 4 4 5 5 4 4 3 3 3
5 5 5 5 4 3 2 2 2 1 1 1 2 3 3 3 3 2 3 3 3 3 5 5 3 2 3 4 3 3 4 5 4 5 4 5 5 4 4 5 4 4 3
4 5 5 4 4 3 3 3 3 3 3 3 3 3 4 4 3 3 3 2 3 3 3 4 3 3 3 3 3 3 3 2 3 4 4 4 5 4 4 4 5 4 4
4 4 5 5 4 3 3 3 3 2 1 1 1 2 3 4 4 3 3 3 3 2 3 3 3 2 2 3 3 3 2 1 1 3 4 4 4 4 5 4 4 4 3
4 5 5 5 4 3 3 4 4 3 1 1 1 3 3 3 4 4 3 3 3 2 2 3 3 3 2 2 2 2 2 2 2 1 2 4 4 3 3 3 3 3 3
4 5 5 6 4 3 4 4 4 4 2 2 3 3 3 3 3 4 3 3 3 2 2 2 2 3 2 2 2 1 1 1 1 1 1 2 3 3 3 3 3 2 2
Wind_Direction
161 155 120 111 107 105 102 99 94 90 89 86 83 81 80 78 76 73 70 68 66 62 56 53 50 44 41 41 37 32 33 33 30 27 32 34 25 18 15 21 18 351 8
140 130 121 115 110 105 102 98 93 88 85 82 80 77 75 73 70 66 62 59 55 52 45 38 36 33 29 29 26 21 22 25 26 26 29 25 16 14 16 21 15 12 13
116 111 116 115 112 106 100 95 91 86 82 80 77 76 74 69 64 60 55 51 45 42 38 34 27 23 22 22 17 12 13 18 19 22 23 12 357 13 17 20 19 21 24
116 111 117 116 112 108 102 95 91 87 83 81 78 73 70 66 60 56 51 45 39 35 32 28 21 17 15 14 12 9 9 10 16 18 18 2 351 12 16 20 23 26 29
107 100 116 115 111 107 102 97 93 89 85 82 77 72 66 59 53 48 44 39 35 30 28 27 20 15 11 10 8 6 7 6 15 18 12 359 347 352 10 19 25 27 30
104 101 118 117 112 108 104 101 97 90 85 80 74 68 60 53 48 42 36 31 28 24 23 20 13 7 5 3 360 360 359 2 17 12 1 349 336 335 2 15 23 23 26
117 108 119 120 116 112 108 102 93 86 80 72 63 55 46 40 37 33 28 24 21 17 14 12 4 359 354 352 350 348 349 354 17 9 357 340 322 325 353 11 16 18 23
124 112 107 121 121 118 112 105 96 84 68 55 44 36 30 24 22 21 20 15 11 10 10 8 4 0 357 354 352 349 348 353 360 358 338 326 315 324 349 15 16 12 23
107 100 77 72 95 113 110 101 88 69 51 39 31 29 25 19 14 11 10 6 5 7 8 6 2 1 1 359 359 360 360 5 21 342 330 322 309 315 337 4 22 20 22
88 83 73 54 49 41 28 44 50 41 34 30 29 26 26 23 17 12 7 1 1 5 8 7 8 9 8 6 7 8 13 18 14 348 329 307 312 317 321 350 17 29 30
120 62 72 57 46 36 8 15 25 25 24 25 24 22 24 13 8 9 8 11 12 13 14 15 16 14 15 11 10 17 24 21 2 345 328 318 326 328 339 349 355 21 39
196 222 215 195 53 26 3 26 22 26 24 21 20 23 24 22 17 26 19 24 25 24 19 18 19 17 17 6 6 20 19 9 7 340 329 332 332 338 355 354 338 1 24
204 215 203 203 190 65 16 23 28 25 23 18 24 30 40 36 24 24 19 13 11 17 13 7 9 4 4 4 1 4 5 7 353 338 330 335 336 336 347 347 331 347 6
190 214 210 177 144 113 79 56 53 40 31 27 23 35 47 39 27 17 18 5 6 360 360 1 357 356 3 5 3 360 0 358 348 342 329 341 345 337 336 350 353 349 355
185 198 184 151 140 130 101 77 76 57 45 40 36 32 52 55 36 21 12 11 4 -0 1 356 358 0 4 2 3 5 359 352 349 350 337 345 355 351 340 349 359 341 341
187 178 156 146 146 127 107 93 81 69 60 52 40 35 48 54 44 30 19 10 2 354 354 357 359 1 359 0 5 6 3 356 353 349 346 349 357 359 358 352 350 350 4
176 166 157 147 124 117 111 107 94 81 71 58 42 38 47 49 42 37 26 11 352 347 356 4 5 9 12 12 10 8 11 6 7 3 2 359 358 2 3 5 7 5 4
156 153 144 126 114 108 101 96 84 73 66 48 36 34 37 40 44 42 30 6 350 357 7 9 10 10 7 6 6 6 12 12 15 14 18 13 10 6 1 8 17 14 12
155 142 119 110 111 105 95 86 77 65 53 36 31 28 25 30 39 47 29 2 359 11 13 10 19 15 4 359 4 21 16 17 14 21 22 18 14 11 9 8 16 17 18
135 125 118 106 102 100 89 78 64 53 37 27 23 19 24 25 34 41 30 11 10 18 13 11 13 17 14 355 12 24 17 17 23 25 19 17 16 17 21 20 16 9 19
126 126 128 117 114 108 96 93 85 58 17 9 5 12 17 20 26 36 29 17 17 23 11 7 10 16 11 358 26 10 3 17 34 26 16 20 18 14 19 22 19 15 8
140 137 131 128 125 118 110 113 113 111 63 360 347 4 13 14 12 23 32 19 13 16 16 16 21 17 12 19 40 43 9 355 359 12 14 22 14 10 17 19 19 18 16
139 147 141 131 125 120 108 92 72 53 32 15 6 358 356 3 12 21 25 23 17 25 17 12 20 36 19 12 38 76 77 356 325 339 6 16 11 13 7 8 19 13 13
151 140 131 127 119 111 109 104 102 91 67 339 325 336 347 5 12 15 20 24 23 23 19 10 31 32 45 19 11 35 82 143 49 341 340 354 5 11 5 8 12 7 8
131 130 126 118 108 104 102 107 101 92 86 5 4 9 5 1 7 12 19 22 18 16 14 18 25 35 44 48 27 16 36 44 57 84 340 334 345 346 352 352 356 360 359
108 118 123 117 106 103 101 99 105 106 92 59 30 15 1 353 355 5 13 19 15 13 8 9 22 31 34 46 45 45 51 41 11 62 360 325 327 320 330 342 353 345 346